Location: Aldenham
(51.6667°N, 0.3500°W)
Time: 12:06:45
(UTC+00:00)

Altair - Pass Details

Date: 20 February 2026
Orbit: 1502 x 1682 km, 47.2° (Epoch: 17 March)

Event Time Altitude Azimuth Distance (km) Brightness Sun altitude
Rises 10:21:31 0° 286° (WNW) 4,712 9.6 22.9°
Reaches altitude 10° 10:24:56 10° 277° (W) 3,751 9.3 23.1°
Maximum altitude 10:32:57 32° 219° (SW) 2,484 9.1 23.7°
Drops below altitude 10° 10:41:12 10° 162° (SSE) 3,861 11.5 24.3°
Sets 10:44:48 0° 153° (SSE) 4,869 11.5 24.5°
